Location: Brno
(49.2000°N, 16.6330°E)
Time: 20:11:01
(UTC+02:00)

Tiros 1 - Visible Passes

Search period start: 28 July 2021 00:00
Search period end: 07 August 2021 00:00
Orbit: 630 x 663 km, 48.4° (Epoch: 27 July)

Date Brightness Start Highest point End Pass type
(mag) Time Alt. Az. Time Alt. Az. Time Alt. Az.
28 Jul 7.0 00:46:00 10° W 00:50:41 65° SSW 00:50:56 64° S visible
28 Jul 9.5 02:28:31 10° W 02:28:31 10° W 02:28:31 10° W visible
28 Jul 7.1 21:47:38 10° WSW 21:52:21 67° SSE 21:57:02 10° E visible
28 Jul 7.0 23:29:46 10° W 23:34:30 81° S 23:37:13 25° E visible
29 Jul 8.2 01:12:01 10° W 01:14:48 31° WSW 01:14:48 31° WSW visible
29 Jul 7.1 22:13:32 10° W 22:18:17 81° S 22:22:59 10° E visible
29 Jul 7.0 23:55:44 10° W 00:00:26 67° SSW 00:01:16 55° SE visible
30 Jul 9.3 01:38:12 10° W 01:38:52 13° W 01:38:52 13° W visible
30 Jul 7.0 22:39:29 10° W 22:44:14 82° S 22:47:50 17° E visible
31 Jul 7.7 00:21:43 10° W 00:25:26 42° SW 00:25:26 42° SW visible
31 Jul 7.1 21:23:15 10° W 21:28:01 80° S 21:32:44 10° E visible
31 Jul 7.1 23:05:27 10° W 23:10:11 69° SSW 23:12:03 35° ESE visible
01 Aug 8.9 00:47:52 10° W 00:49:41 20° WSW 00:49:41 20° WSW visible
01 Aug 7.1 21:49:12 10° W 21:53:59 82° S 21:58:42 10° E visible
01 Aug 7.3 23:31:27 10° W 23:36:01 49° SSW 23:36:21 48° S visible
02 Aug 7.1 22:15:10 10° W 22:19:55 71° SSW 22:23:03 21° ESE visible
02 Aug 8.3 23:57:34 10° W 00:00:41 28° WSW 00:00:41 28° WSW visible
03 Aug 7.2 20:58:55 10° W 21:03:42 83° S 21:08:26 10° E visible
03 Aug 7.4 22:41:10 10° W 22:45:46 52° SSW 22:47:25 34° SSE visible
04 Aug 9.4 00:24:08 10° W 00:25:03 13° WSW 00:25:03 13° WSW visible
04 Aug 7.2 21:24:54 10° W 21:29:39 73° S 21:34:13 11° ESE visible
04 Aug 8.0 23:07:15 10° W 23:11:29 33° SSW 23:11:50 32° SSW visible
05 Aug 7.4 21:50:52 10° W 21:55:30 54° SSW 21:58:40 19° SE visible
05 Aug 8.9 23:33:44 10° W 23:36:18 18° SW 23:36:18 18° SW visible
06 Aug 8.0 22:16:57 10° W 22:21:15 35° SSW 22:23:09 25° SSE visible
